STARLINK-6259, 57089

Orbit data source: Space-Track

STARLINK-6259, 57089 is a payload satellite owned by SpaceX/Seattle (US) in LEO that was launched on Thu, 22 Jun 2023 UTC via an FALCON 9 launch vehicle from the Air Force Western Test Range (AFWTR). Payload-class satellites include a variety of spacecraft equipped with specific instruments for various scientific and technological missions. These include communications satellites like Starlink; space stations such as the ISS; scientific satellites like the Hubble; Earth observation satellites from companies like Planet Labs, Umbra, and HawkEye 360; GPS; miniature CubeSats for education and research; and military/defense satellites.

Loading next visibility...
Identifier
57089, 2023-088AT
Orbit
LEO
Country
Flag of USUS
Related business
Manufacturer
SpaceX/Seattle
Mission
Operational Commercial Communications
Bus & Motor
STARLINK, Unknown motor
Mass
305 kg wet, ~290 kg dry
Launch date (UTC)
Icon of a cake. It is the launch day of the satellite!2023-06-22 (3 years ago)
Launch vehicle
FALCON 9
Launch site
Air Force Western Test Range (AFWTR)
Object type
Payload
Rocket body
Debris
Shape & HBR
Box + 1 Pan, 10.1 m
Radar Cross Section
11.087 m², Large (>1 m²)

Expand to show TLE details & history
Last TLE update: 3 days ago

TLE from 3 days ago
0 STARLINK-6259
1 57089U 23088AT  26170.18246692 -.00000074  00000-0  68473-5 0  9999
2 57089  43.0023 242.8324 0001172 271.5273  88.5444 15.27575215166024
Epoch: 2026-06-19T04:22Z
TLE epoch observation values (Epoch: 2026-06-19T04:22:45.141Z)
Latitude
-0.00006°
Longitude
-90.27087°
Altitude
482.819 km
Speed
7.626 km/s
True Right ascension
16h 11m 19s
True Declination
0° 00' 00"
Sunlit
Object was in full shadow at epoch
Visualization orbit readout
Latitude
Unknown
Longitude
Unknown
Altitude
Unknown
Speed
Unknown
Apparent Right ascension
Unknown
Apparent Declination
Unknown
Sunlit
N/A
Visualization observer readout
Local Sidereal Time
21:28:43
Azimuth
Unknown
Elevation
Unknown
Doppler factor
Unknown
Orbital elements
Apogee altitude
485.813 km
Perigee altitude
484.204 km
Semi-major axis
6,863.145 km
Eccentricity
0.00012
Inclination
43.0023°
RAAN
242.8324°
Arg. of periapsis
271.5273°
True anomaly
88.55783°
Mean anomaly
88.5444°
Eccentric anomaly
88.55111°
Mean motion
3.81732 °/min
Orbital period
94.31 mins
BSTAR
0.0000068473
Loading maneuver chart data...
Computing Atmospheric mass density...
Loading historical data...
Loading historical data...
Loading historical data...
Loading historical data...
Loading historical data...
Loading historical data...
Loading historical data...

Documentation

Showing up to 5 results
|